Location: Newark
(44.4156°N, 12.1972°E)
Time: 06:12:49
(UTC+00:00)

STARLINK-1123 - Pass Details

Date: 29 January 2020
Orbit: 548 x 551 km, 53.0° (Epoch: 22 February)

Event Time Altitude Azimuth Distance (km) Brightness Sun altitude
Rises 18:11:25 0° 303° (WNW) 2,726 8.0 -20.7°
Reaches altitude 10° 18:13:39 10° 303° (WNW) 1,830 7.0 -21.1°
Maximum altitude 18:17:50 86° 214° (SW) 557 3.5 -21.9°
Enters shadow 18:18:14 72° 136° (SE) 583 3.5 -22.0°
